• Join FlightAware (Why Join?)
  • Login
  • US Flag 
03:26AM EST


 

Airport Tracker/Info


-or-


 

Live Flight TrackerFlight Track Log ✈ SWA862 ✈ 11-May-2013 ✈ KSMF - KPDX

Flight Track Log - Related Links

Times and Time Zones

All times are in EDT time to prevent confusion due to time zone crossing. See the SWA862 flight status page for this flight to view local times or setup timezone preferences in your user account.

Time Position Orientation Groundspeed Altitude Reporting Facility
EDT Latitude Longitude Course Direction KTS MPH feet Rate Location/Type
03:06PM 38.6911 -121.6775 319° Northwest 222 255 3,600  Level Oakland Center
03:07PM 38.7572 -121.7114 338° Northwest 264 304 5,700 2,683 Climbing Oakland Center
03:08PM 38.8503 -121.7481 343° North 286 329 9,100 2,585 Climbing Oakland Center
03:09PM 38.9344 -121.7806 343° North 306 352 11,000 2,459 Climbing Oakland Center
03:10PM 39.0311 -121.8131 345° North 348 400 14,100 2,705 Climbing Oakland Center
03:11PM 39.2375 -121.8351 342° North  Level FlightAware Approximate
03:11PM 39.1311 -121.8267 354° North 355 409 16,500  Level Oakland Center
03:12PM 39.2361 -121.8444 353° North 372 428 18,800 2,195 Climbing Oakland Center
03:13PM 39.3422 -121.8625 353° North 382 440 21,000 1,967 Climbing Oakland Center
03:14PM 39.4533 -121.8817 352° North 399 459 22,800 1,967 Climbing Oakland Center
03:15PM 39.5644 -121.8997 353° North 409 471 25,000 1,756 Climbing Oakland Center
03:16PM 39.6789 -121.9192 353° North 414 476 26,400 1,561 Climbing Oakland Center
03:17PM 39.8217 -121.9444 352° North 432 497 28,200 1,770 Climbing Oakland Center
03:18PM 39.9408 -121.9631 353° North 434 499 30,000 1,721 Climbing Oakland Center
03:19PM 40.0569 -121.9833 352° North 426 490 31,700 976 Climbing Oakland Center
03:20PM 40.1719 -122.0039 352° North 423 487 32,000 146 Climbing Oakland Center
03:21PM 40.2875 -122.0233 353° North 425 489 32,000  Level Oakland Center
03:22PM 40.4044 -122.0453 352° North 428 493 32,000  Level Oakland Center
03:23PM 40.5450 -122.0714 352° North 428 493 32,000  Level Oakland Center
03:24PM 40.6639 -122.0919 353° North 431 496 32,000  Level Oakland Center
03:25PM 40.7814 -122.1136 352° North 429 494 32,000  Level Oakland Center
03:26PM 40.8989 -122.1344 352° North 428 493 32,000  Level Oakland Center
03:27PM 41.0169 -122.1536 353° North 426 490 32,000  Level Oakland Center
03:28PM 41.1333 -122.1786 351° North 423 487 32,000  Level Oakland Center
03:29PM 41.2522 -122.1994 352° North 428 493 32,000  Level Oakland Center
03:30PM 41.3739 -122.2208 352° North 430 495 32,000  Level Oakland Center
03:31PM 41.4711 -122.2392 352° North 434 499 32,000  Level Seattle Center
03:32PM 41.5925 -122.2614 352° North 437 503 32,000  Level Seattle Center
03:33PM 41.7122 -122.2844 352° North 434 499 32,000  Level Seattle Center
03:34PM 41.8336 -122.3069 352° North 434 499 32,000  Level Seattle Center
03:35PM 41.9536 -122.3303 352° North 432 497 32,000  Level Seattle Center
03:36PM 42.0742 -122.3531 352° North 431 496 32,000  Level Seattle Center
03:37PM 42.1944 -122.3739 353° North 431 496 32,000  Level Seattle Center
03:38PM 42.3153 -122.3950 353° North 431 496 32,000  Level Seattle Center
03:39PM 42.4375 -122.4197 352° North 438 504 32,000  Level Seattle Center
03:40PM 42.5575 -122.4422 352° North 436 502 32,000  Level Seattle Center
03:41PM 42.6792 -122.4664 352° North 439 505 32,000  Level Seattle Center
03:42PM 42.8219 -122.4925 352° North 442 509 32,000  Level Seattle Center
03:43PM 42.9439 -122.5153 352° North 442 509 32,000  Level Seattle Center
03:44PM 43.0669 -122.5381 352° North 444 511 32,000  Level Seattle Center
03:45PM 43.1900 -122.5619 352° North 445 512 32,000  Level Seattle Center
03:46PM 43.3111 -122.5856 352° North 440 506 32,000  Level Seattle Center
03:47PM 43.4342 -122.6106 352° North 444 511 32,000  Level Seattle Center
03:48PM 43.5572 -122.6336 352° North 445 512 32,000  Level Seattle Center
03:49PM 43.6800 -122.6581 352° North 447 514 32,000  Level Seattle Center
03:50PM 43.8017 -122.6833 351° North 445 512 32,000 -639 Level Seattle Center
03:51PM 43.9494 -122.7119 352° North 446 513 30,700 -1,672 Descending Seattle Center
03:53PM 44.0681 -122.7358 352° North 435 501 28,600 -2,066 Descending Seattle Center
03:54PM 44.1833 -122.7500 355° North 420 483 26,500 -2,066 Descending Seattle Center
03:55PM 44.2969 -122.7375 North 411 473 24,400 -2,016 Descending Seattle Center
03:56PM 44.3983 -122.7281 North 404 465 22,400 -1,934 Descending Seattle Center
03:57PM 44.5050 -122.7175 North 391 450 20,500 -1,884 Descending Seattle Center
03:58PM 44.6094 -122.7072 North 382 440 18,600 -1,918 Descending Seattle Center
03:59PM 44.7306 -122.6956 North 368 423 16,600 -1,974 Descending Seattle Center
03:59PM 44.7553 -122.6925 North 370 426 16,100 -1,971 Descending Seattle Center
04:00PM 44.8464 -122.6833 North 363 418 14,300 -1,963 Descending Seattle Center
04:01PM 44.9300 -122.6753 North 359 413 12,600 -1,487 Descending Seattle Center
04:02PM 45.0247 -122.6672 North 349 402 11,500 -1,180 Descending Seattle Center
04:03PM 45.1094 -122.6578 North 320 368 10,200 -1,339 Descending Seattle Center
04:04PM 45.1908 -122.6489 North 300 345 8,800 -1,520 Descending Seattle Center
04:04PM 45.2181 -122.6464 North 298 343 8,300 -1,574 Descending Seattle Center
04:05PM 45.2733 -122.6406 North 298 343 7,200 -897 Descending Seattle Center
04:06PM 45.3561 -122.6336 North 298 343 6,700 -787 Descending Seattle Center
04:07PM 45.4358 -122.6233 North 294 338 5,600 -885 Descending Seattle Center
04:08PM 45.4536 -122.5428 73° East 257 296 4,900 -868 Descending Seattle Center
04:08PM 45.4478 -122.5067 103° East 226 260 4,500 -1,100 Descending Seattle Center
04:09PM 45.4383 -122.4536 104° East 235 270 3,800 -849 Descending Seattle Center
04:10PM 45.4572 -122.3794 70° East 240 276 3,000 -689 Descending Seattle Center
04:11PM 45.5183 -122.4003 347° North 220 253 2,400 -553 Descending Seattle Center
04:11PM 45.5253 -122.4192 298° West 205 236 2,300 -686 Descending Seattle Center
04:12PM 45.5469 -122.4722 300° West 179 206 1,600 -785 Descending Seattle Center
04:13PM 45.5672 -122.5228 300° West 181 208 900 -637 Descending Seattle Center
04:14PM 45.5844 -122.5639 301° West 168 193 400 -492 Descending Seattle Center